Location: Unspecified
(40.7945°N, 0.0000°E)
Time: 21:24:34
(UTC+00:00)

DUCHIFAT 1 - Visible Passes

Search period start: 18 July 2019 00:00
Search period end: 28 July 2019 00:00
Orbit: 587 x 604 km, 97.9° (Epoch: 17 July)

Date Brightness Start Highest point End Pass type
(mag) Time Alt. Az. Time Alt. Az. Time Alt. Az.
18 Jul ? 00:51:17 10° NNE 00:54:41 55° NNE 00:54:41 55° NNE visible
19 Jul ? 01:01:07 10° N 01:04:34 57° N 01:04:34 57° N visible
20 Jul ? 01:10:59 10° N 01:14:27 51° NNW 01:14:27 51° NNW visible
20 Jul ? 23:46:45 10° ENE 23:47:40 13° ENE 23:47:40 13° ENE visible
21 Jul ? 01:20:53 10° N 01:24:20 43° NW 01:24:20 43° NW visible
21 Jul ? 23:56:02 10° NE 23:57:33 16° ENE 23:57:33 16° ENE visible
22 Jul ? 01:30:50 10° N 01:34:13 35° NW 01:34:13 35° NW visible
23 Jul ? 00:05:29 10° NE 00:07:26 19° ENE 00:07:26 19° ENE visible
23 Jul ? 01:40:50 10° N 01:44:05 28° WNW 01:44:05 28° WNW visible
24 Jul ? 00:15:02 10° NE 00:17:18 24° ENE 00:17:18 24° ENE visible
24 Jul ? 01:50:53 10° NNW 01:53:57 23° WNW 01:53:57 23° WNW visible
25 Jul ? 00:24:40 10° NNE 00:27:10 28° NE 00:27:10 28° NE visible
25 Jul ? 02:01:02 10° NNW 02:03:50 18° WNW 02:03:50 18° WNW visible
26 Jul ? 00:34:22 10° NNE 00:37:02 34° NE 00:37:02 34° NE visible
26 Jul ? 02:11:18 10° NNW 02:13:41 15° WNW 02:13:42 15° WNW visible
27 Jul ? 00:44:06 10° NNE 00:46:54 39° NE 00:46:54 39° NE visible
27 Jul ? 02:21:51 10° NW 02:23:23 12° WNW 02:23:34 12° WNW visible
